AirNav   Get $300 off a Bose A20
 
 797 users online  

74OR Stan Jost Airport
Newberg, Oregon, USA

GOING TO NEWBERG?


FAA INFORMATION EFFECTIVE 28 MARCH 2019

Location

FAA Identifier: 74OR
Lat/Long: 45-19-25.4220N / 123-01-08.3700W
45-19.423700N / 123-01.139500W
45.3237283 / -123.0189917
(estimated)
Elevation: 180 ft. / 55 m (estimated)
Variation: 20E (1980)
From city: 3 miles NW of NEWBERG, OR
Time zone: UTC -7 (UTC -8 during Standard Time)
Zip code: 97132

Airport Operations

Airport use: Private use. Permission required prior to landing
Activation date: 12/1986
Control tower: no
ARTCC: SEATTLE CENTER
FSS: MC MINNVILLE FLIGHT SERVICE STATION
Attendance: IREG IREG
Wind indicator: yes, 2 WIND INDICATORS.
Segmented circle: no

Airport Communications

WX ASOS at MMV (9 nm SW): 135.675 (503-434-9153)
WX ASOS at UAO (11 nm SE): PHONE 503-678-3011
WX ASOS at HIO (13 nm N): PHONE 503-640-2984

Nearby radio navigation aids

VOR radial/distance  VOR name  Freq  Var
UBGr203/2.5NEWBERG VOR/DME117.4021E
BTGr194/31.1BATTLE GROUND VORTAC116.6021E

 
NDB name  Hdg/Dist  Freq  Var  ID
BANKS160/18.435616EPND .--. -. -..

Airport Services

Runway Information

Runway 15/33

Dimensions: 1300 x 80 ft. / 396 x 24 m
Surface: turf
RUNWAY 15  RUNWAY 33
Traffic pattern: leftleft
Obstructions: 15 ft. trees, 50 ft. from runwaynone

Airport Ownership and Management from official FAA records

Ownership: Privately-owned
Owner: STAN JOST
15125 NE FLYING FEATHERLANE
NEWBERG, OR 97132
Phone 503-554-9112
Manager: STAN JOST
15125 NE FLYING FEATHERLANE
NEWBERG, OR 97132
Phone 503-554-9112

Airport Operational Statistics

Aircraft based on the field: 1
Single engine airplanes: 1
    

Additional Remarks

FOR CD CTC PORTLAND APCH AT 503-493-7545.

Instrument Procedures

There are no published instrument procedures at 74OR.

Some nearby airports with instrument procedures:

KMMV - Mc Minnville Municipal Airport (9 nm SW)
KUAO - Aurora State Airport (11 nm SE)
KHIO - Portland-Hillsboro Airport (13 nm N)
KVUO - Pearson Field Airport (23 nm NE)
KPDX - Portland International Airport (24 nm NE)
 
Loc | Ops | Rwys | IFR | FBO | Links
Com | Nav | Svcs | Stats | Notes
Area around 74OR (Stan Jost Airport)
 
Road maps at: MapQuest Bing Google
 
Aerial photo
WARNING: Photo may not be current or correct
Aerial photo of 74OR (Stan Jost Airport)
Do you have a better or more recent aerial photo of Stan Jost Airport that you would like to share? If so, please send us your photo.

 
Sectional chart

 
Airport distance calculator
Flying to Stan Jost Airport? Find the distance to fly.

From to 74OR

Sunrise and sunset
Times for 23-Apr-2019
 Local
(UTC-7)
 Zulu
(UTC)
Morning civil twilight05:4212:42
Sunrise06:1413:14
Sunset20:0703:07
Evening civil twilight20:3903:39

Current date and time
Zulu (UTC)  24-Apr-2019 03:27:21
Local (UTC-7)  23-Apr-2019 20:27:21
 
METAR
KMMV 
9nm SW 
240253Z AUTO 29007KT 10SM SCT030 13/08 A3019 RMK AO2 SLP222 T01280078 51005
KUAO 
12nm E 
240253Z 31005KT 10SM OVC029 15/09 A3019 RMK AO2 SLP221 T01500089 53003
KHIO 
14nm N 
240253Z 34009KT 10SM OVC040 12/07 A3019 RMK AO2 SLP222 T01170072 51009
TAF
KUAO 
12nm E 
231737Z 2318/2418 VRB04KT P6SM VCSH BKN015 OVC035 FM231900 29004KT P6SM BKN025 OVC035 FM232100 31006KT P6SM SCT025 BKN035 FM240300 36007KT P6SM SCT040 FM241200 01008KT P6SM FEW008 SCT015
KHIO 
14nm N 
240206Z 2402/2424 33011KT P6SM OVC040 FM240300 32006KT P6SM SCT040 FM241200 32004KT P6SM FEW008 SCT015 FM241900 01007KT P6SM FEW250
NOTAMs
Click for the latest NOTAMs
NOTAMs are issued by the DoD/FAA and will open in a separate window not controlled by AirNav.

 

 
 

Would you like to see your business listed on this page?

 If your business provides an interesting product or service to pilots, flight crews, aircraft, or users of the Stan Jost Airport, you should consider listing it here.  To start the listing process, click on the button below
 
Add a business
 

Other Pages about Stan Jost Airport

Update a link
 
Copyright © AirNav, LLC. All rights reserved. Privacy Policy  Contact